Kalispell, MT

11:16 PM MST on December 10, 2017 (GMT -0700)
Glacier Park International

Weather History for KGPI - June, 2013

Change the Weather History Date:

Wednesday, June 26, 2013

  Actual Average Record
Temperature  
Mean Temperature 61 °F 60 °F  
Max Temperature 72 °F 75 °F 95 °F (1926)
Min Temperature 50 °F 46 °F 31 °F (2007)
Degree Days  
Heating Degree Days 4 6  
Month to date heating degree days 184 196  
Since 1 June heating degree days 184 196  
Since 1 July heating degree days 7450 8019  
Cooling Degree Days 0 1  
Month to date cooling degree days 3 7  
Year to date cooling degree days 3 10  
Since 1 June cooling degree days 3 7  
Growing Degree Days 12 (Base 50)    
Moisture  
Dew Point 50 °F    
Average Humidity 69    
Maximum Humidity 96    
Minimum Humidity 41    
Precipitation  
Precipitation T in 0.08 in 0.50 in (1969)
Month to date precipitation 2.71 2.27  
Year to date precipitation 9.01 8.88  
Snow  
Snow 0.00 in - - ()
Month to date snowfall 0.0  
Year to date snowfall 10.1  
Since 1 July snowfall 18.9  
Snow Depth 0.00 in    
Sea Level Pressure  
Sea Level Pressure 29.99 in    
Wind  
Wind Speed 4 mph (SW)    
Max Wind Speed 16 mph    
Max Gust Speed 23 mph    
Visibility 10 miles    
Events      
T = Trace of Precipitation, MM = Missing Value Source: NWS Daily Summary

Daily Weather History Graph

Daily Weather History Graph

Search for Another Location

Airport or City:

Trip Planner

Search our weather history database for the weather conditions in past years. The results will help you decide how hot, cold, wet, or windy it might be!

Date:

Astronomy

Jun. 26, 2013 Rise Set
Actual Time 5:37 AM MDT 9:42 PM MDT
Civil Twilight 4:56 AM MDT 10:23 PM MDT
Nautical Twilight 3:57 AM MDT 11:22 PM MDT
Astronomical Twilight 2:11 AM MDT 1:07 AM MDT
Moon 11:44 PM MDT (6/26) 9:53 AM MDT (6/26)
Length of Visible Light 17h 27m
Length of Day
16h 04m
Waning Gibbous, 85% of the Moon is Illuminated
Jun 26
Waning Gibbous
Jun 29
Last Quarter
Jul 8
New
Jul 15
First Quarter
Jul 22
Full

Hourly Weather History & Observations

Time (MDT) Temp. Dew Point Humidity Pressure Visibility Wind Dir Wind Speed Gust Speed Precip Events Conditions
12:55 AM 55.9 °F 53.1 °F 90% 29.88 in 10.0 mi South 4.6 mph - N/A   Overcast
1:55 AM 53.1 °F 51.1 °F 93% 29.90 in 10.0 mi Calm Calm - N/A   Partly Cloudy
2:55 AM 51.1 °F 50.0 °F 96% 29.91 in 10.0 mi West 3.5 mph - N/A   Partly Cloudy
3:55 AM 51.1 °F 50.0 °F 96% 29.92 in 10.0 mi North - - N/A   Partly Cloudy
4:55 AM 51.1 °F 50.0 °F 96% 29.96 in 10.0 mi WSW 3.5 mph 24.2 mph N/A   Overcast
5:55 AM 52.0 °F 48.9 °F 89% 29.96 in 10.0 mi WSW 5.8 mph - N/A   Overcast
6:55 AM 53.1 °F 50.0 °F 89% 29.97 in 10.0 mi WSW 4.6 mph - N/A   Scattered Clouds
7:55 AM 55.9 °F 51.1 °F 84% 29.98 in 10.0 mi Calm Calm - N/A   Overcast
8:55 AM 60.1 °F 52.0 °F 75% 29.99 in 10.0 mi Calm Calm - N/A   Overcast
9:55 AM 60.1 °F 51.1 °F 72% 30.00 in 10.0 mi Calm Calm - 0.00 in   Overcast
10:55 AM 62.1 °F 53.1 °F 72% 30.00 in 10.0 mi SE 5.8 mph - N/A   Scattered Clouds
11:55 AM 64.9 °F 51.1 °F 61% 29.99 in 10.0 mi SSW 5.8 mph - N/A   Partly Cloudy
12:55 PM 66.9 °F 51.1 °F 57% 30.00 in 10.0 mi SSE 4.6 mph - N/A   Partly Cloudy
1:55 PM 69.1 °F 48.0 °F 47% 29.99 in 10.0 mi SW 9.2 mph - N/A   Clear
2:55 PM 70.0 °F 48.0 °F 46% 30.00 in 10.0 mi WSW 6.9 mph - N/A   Clear
3:55 PM 72.0 °F 50.0 °F 46% 30.00 in 10.0 mi Variable 4.6 mph - N/A   Partly Cloudy
4:55 PM 71.1 °F 46.0 °F 41% 29.99 in 10.0 mi West 9.2 mph - N/A   Partly Cloudy
5:55 PM 64.9 °F 48.0 °F 54% 30.02 in 10.0 mi NW 5.8 mph - 0.00 in   Mostly Cloudy
6:55 PM 66.0 °F 48.9 °F 54% 30.02 in 10.0 mi WNW 10.4 mph - N/A   Partly Cloudy
7:55 PM 64.9 °F 48.0 °F 54% 30.03 in 10.0 mi WNW 3.5 mph - N/A   Mostly Cloudy
8:55 PM 62.1 °F 52.0 °F 70% 30.05 in 10.0 mi Calm Calm - N/A   Partly Cloudy
9:55 PM 60.1 °F 53.1 °F 78% 30.07 in 10.0 mi SW 4.6 mph - N/A   Overcast
10:55 PM 60.1 °F 52.0 °F 75% 30.09 in 10.0 mi Calm Calm - N/A   Overcast
11:55 PM 60.1 °F 51.1 °F 72% 30.09 in 10.0 mi SE 3.5 mph - N/A   Mostly Cloudy